Дата Пункты Температура Давл., мм. Влажн., % Ветер Погодные явления
Воздуха Воды Направл. Скорость
16.11.14 07:00 Одесса 7.0 8.0 763 64 Пн-С 5 20 часов
16.11.14 04:00 Одесса 8.0 8.0 762 73 Пн-С 5 17 часов
16.11.14 01:00 Одесса 8.0 8.0 762 74 Пн-С 3 14 часов
16.11.14 10:00 Одесса 7.0 8.0 763 92 Пн-С 6 11 часов
16.11.14 07:00 Одесса 5.0 8.0 763 97 Пн 4 08 часов
16.11.14 04:00 Одесса 4.0 8.0 762 97 Пн 4 05 часов
16.11.14 01:00 Одесса 4.0 8.0 763 96 Пн 3 02 часа
15.11.14 10:00 Одесса 5.0 8.0 763 94 Пн-С 5 23 часа
15.11.14 07:00 Одесса 5.0 8.0 763 93 Пн 2 20 часов
15.11.14 04:00 Одесса 6.0 8.0 762 90 Пн 1 17 часов
15.11.14 01:00 Одесса 7.0 8.0 763 91 Пн 4 14 часов
15.11.14 10:00 Одесса 5.0 8.0 763 99 Пн-С 3 11 часов
15.11.14 07:00 Одесса 4.0 8.0 763 100 Пн-С 4 08 часов
15.11.14 04:00 Одесса 4.0 9.0 762 96 Пн 5 05 часов
15.11.14 01:00 Одесса 4.0 9.0 762 93 Пн 5 02 часа
14.11.14 10:00 Одесса 6.0 9.0 762 87 Пн 6 23 часа
14.11.14 07:00 Одесса 5.0 9.0 762 93 Пн 3 20 часов
14.11.14 04:00 Одесса 7.0 9.0 762 92 Пн 6 17 часов
14.11.14 01:00 Одесса 7.0 9.0 762 98 Пн 1 14 часов
14.11.14 10:00 Одесса 6.0 9.0 762 98 Пн-С 6 11 часов
Количество строк
421 422 423 424 425 426 427 428 429 430
Page 424 of 448